1322697632118,119.622
1322697692118,120.526
1322697752118,119.918
1322697812118,119.194
1322697872118,120.241
1322697932118,119.548
1322697992118,119.820
1322698052118,119.946
1322698112118,119.613
1322698172118,120.163
1322698232118,119.882
1322698292118,119.863
1322698352118,120.521
1322698412118,119.949
1322698472118,120.408
1322698532118,119.951
1322698592118,119.869
1322698652118,119.887
1322698712118,119.629
1322698772118,119.764
1322698832118,119.563
1322698892118,120.015
1322698952118,119.294
1322699012118,119.900
1322699072118,120.173
1322699132118,120.053
1322699192118,119.220
1322699252118,119.565
1322699312118,119.492
1322699372118,119.936
1322699432118,119.926
1322699492118,119.824
1322699552118,119.984
1322699612118,119.919
1322699672118,120.240
1322699732118,119.985
1322699792118,119.949
1322699852118,119.936
1322699912118,120.199
1322699972118,120.594
1322700032118,120.123
1322700092118,120.234
1322700152118,119.971
1322700212118,120.160
1322700272118,120.482
1322700332118,120.151
1322700392118,119.859
1322700452118,120.236
1322700512118,120.101
1322700572118,120.444
1322700632118,120.531
1322700692118,119.935
1322700752118,120.304
1322700812118,120.257
1322700872118,119.702
1322700932118,120.644
1322700992118,120.130
1322701052118,119.676
1322701112118,119.898
1322701172118,119.844
1322701232128,119.770
1322701292128,119.858
1322701352128,120.118
1322701412128,119.578
1322701472128,120.136
1322701532128,120.304
1322701592128,119.971
1322701652128,120.069
1322701712128,120.475
1322701772128,119.348
1322701832128,119.894
1322701892128,120.444
1322701952128,120.522
1322702012128,120.013
1322702072128,120.242
1322702132128,119.673
1322702192128,120.035
1322702252128,120.197
1322702312128,119.992
1322702372128,120.751
1322702432128,120.162
1322702492128,120.648
1322702552128,120.159
1322702612128,120.768
1322702672128,120.063
1322702732128,120.646
1322702792128,120.792
1322702852128,120.869
1322702912128,120.437
1322702972128,120.165
1322703032128,120.444
1322703092128,120.469
1322703152128,120.465
1322703212128,120.667
1322703272128,120.449
1322703332128,120.483
1322703392128,120.337
1322703452128,120.566
1322703512128,120.596
1322703572128,120.642
1322703632128,120.668
1322703692128,120.366
1322703752128,120.166
1322703812128,120.753
1322703872128,120.249
1322703932128,120.357
1322703992128,120.699
1322704052128,120.915
1322704112128,120.412
1322704172128,120.741
1322704232128,120.369
1322704292128,120.823
1322704352128,120.632
1322704412128,120.567
1322704472128,120.639
1322704532128,121.005
1322704592128,120.605
1322704652128,120.892
1322704712128,121.097
1322704772128,120.462
1322704832138,120.470
1322704892138,120.649
1322704952138,120.285
1322705012138,120.762
1322705072138,120.760
1322705132138,120.320
1322705192138,120.731
1322705252138,120.718
1322705312138,120.671
1322705372138,120.686
1322705432138,120.979
1322705492138,120.569
1322705552138,120.677
1322705612138,120.474
1322705672138,120.695
1322705732138,121.247
1322705792138,121.259
1322705852138,121.233
1322705912138,120.849
1322705972138,121.344
1322706032138,121.077
1322706092138,121.224
1322706152138,120.968
1322706212138,121.054
1322706272138,120.924
1322706332138,121.495
1322706392138,120.871
1322706452138,120.979
1322706512138,120.986
1322706572138,121.501
1322706632138,121.430
1322706692138,121.674
1322706752138,121.679
1322706812138,121.687
1322706872138,122.171
1322706932138,122.032
1322706992138,122.040
1322707052138,121.381
1322707112138,121.711
1322707172138,122.120
1322707232138,122.084
1322707292138,121.854
1322707352138,121.949
1322707412138,122.103
1322707472138,122.048
1322707532138,122.227
1322707592138,122.040
1322707652138,121.962
1322707712138,121.867
1322707772138,122.224
1322707832138,122.262
1322707892138,121.873
1322707952138,121.770
1322708012138,122.116
1322708072138,122.243
1322708132138,122.246
1322708192138,122.254
1322708252138,122.214
1322708312138,122.810
1322708372138,122.639
1322708432148,122.851
1322708492148,122.793
1322708552148,122.716
1322708612148,122.714
1322708672148,122.584
1322708732148,122.854
1322708792148,122.969
1322708852148,122.720
1322708912148,122.980
1322708972148,122.960
1322709032148,123.016
1322709092148,122.497
1322709152148,122.679
1322709212148,122.519
1322709272148,123.043
1322709332148,122.654
1322709392148,122.850
1322709452148,122.790
1322709512148,123.164
1322709572148,122.755
1322709632148,122.916
1322709692148,122.705
1322709752148,123.052
1322709812148,122.735
1322709872148,122.655
1322709932148,122.213
1322709992148,122.837
1322710052148,122.792
1322710112148,122.983
1322710172148,122.628
1322710232148,122.566
1322710292148,122.936
1322710352148,122.819
1322710412148,122.623
1322710472148,122.814
1322710532148,122.608
1322710592148,122.363
1322710652148,122.735
1322710712148,122.831
1322710772148,122.041
1322710832148,122.759
1322710892148,122.370
1322710952148,122.685
1322711012148,122.439
1322711072148,122.274
1322711132148,122.851
1322711192148,123.124
1322711252148,122.454
1322711312148,122.681
1322711372148,123.085
1322711432148,122.855
1322711492148,123.003
1322711552148,122.968
1322711612148,123.124
1322711672148,123.367
1322711732148,122.900
1322711792148,122.392
1322711852148,122.715
1322711912148,122.928
1322711972148,122.684
1322712032158,122.612
1322712092158,122.585
1322712152158,122.831
1322712212158,122.740
1322712272158,122.637
1322712332158,122.183
1322712392158,122.265
1322712452158,122.783
1322712512158,122.713
1322712572158,122.825
1322712632158,123.138
1322712692158,122.852
1322712752158,123.085
1322712812158,123.250
1322712872158,122.602
1322712932158,123.341
1322712992158,122.587
1322713052158,122.882
1322713112158,123.137
1322713172158,122.484
1322713232158,122.634
1322713292158,122.873
1322713352158,123.214
1322713412158,123.310
1322713472158,122.557
1322713532158,122.609
1322713592158,122.701
1322713652158,122.554
1322713712158,123.094
1322713772158,123.149
1322713832158,123.274
1322713892158,122.957
1322713952158,122.748
1322714012158,122.395
1322714072158,122.636
1322714132158,123.186
1322714192158,123.137
1322714252158,123.024
1322714312158,123.076
1322714372158,123.390
1322714432158,123.298
1322714492158,122.990
1322714552158,122.757
1322714612158,122.469
1322714672158,123.271
1322714732158,123.188
1322714792158,122.836
1322714852158,122.910
1322714912158,122.815
1322714972158,122.770
1322715032158,122.660
1322715092158,122.738
1322715152158,122.599
1322715212158,122.792
1322715272158,122.879
1322715332158,122.498
1322715392158,122.677
1322715452158,123.272
1322715512158,123.577
1322715572158,122.669
1322715632168,122.871
1322715692168,122.947
1322715752168,122.868
1322715812168,122.785
1322715872168,122.294
1322715932168,123.225
1322715992168,122.338
1322716052168,122.869
1322716112168,121.959
1322716172168,123.131
1322716232168,122.520
1322716292168,123.218
1322716352168,123.062
1322716412168,121.973
1322716472168,122.481
1322716532168,122.455
1322716592168,122.433
1322716652168,122.257
1322716712168,122.223
1322716772168,122.686
1322716832168,122.592
1322716892168,122.524
1322716952168,122.371
1322717012168,123.028
1322717072168,122.135
1322717132168,122.077
1322717192168,122.732
1322717252168,123.384
1322717312168,122.391
1322717372168,122.332
1322717432168,121.916
1322717492168,121.643
1322717552168,121.717
1322717612168,122.895
1322717672168,122.629
1322717732168,122.552
1322717792168,121.768
1322717852168,122.216
1322717912168,122.740
1322717972168,122.193
1322718032168,122.511
1322718092168,122.470
1322718152168,122.404
1322718212168,122.073
1322718272168,122.570
1322718332168,122.543
1322718392168,122.392
1322718452168,122.100
1322718512168,122.448
1322718572168,122.464
1322718632168,121.863
1322718692168,122.682
1322718752168,122.471
1322718812168,122.540
1322718872168,122.197
1322718932168,122.507
1322718992168,122.503
1322719052168,122.001
1322719112168,122.850
1322719172168,122.358
1322719232178,122.374
1322719292178,122.507
1322719352178,122.497
1322719412178,122.488
1322719472178,122.657
1322719532178,122.777
1322719592178,122.383
1322719652178,122.472
1322719712178,122.352
1322719772178,123.244
1322719832178,122.498
1322719892178,123.154
1322719952178,122.358
1322720012178,123.366
1322720072178,122.889
1322720132178,122.516
1322720192178,122.649
1322720252178,122.678
1322720312178,122.381
1322720372178,122.276
1322720432178,123.167
1322720492178,122.447
1322720552178,122.912
1322720612178,122.923
1322720672178,123.157
1322720732178,122.335
1322720792178,123.058
1322720852178,122.689
1322720912178,122.968
1322720972178,122.976
1322721032178,123.017
1322721092178,123.382
1322721152178,122.860
1322721212178,122.866
1322721272178,123.167
1322721332178,122.853
1322721392178,123.168
1322721452178,123.105
1322721512178,123.209
1322721572178,122.915
1322721632178,123.586
1322721692178,123.241
1322721752178,123.314
1322721812178,123.450
1322721872178,123.184
1322721932178,123.508
1322721992178,123.271
1322722052178,123.087
1322722112178,123.417
1322722172178,123.935
1322722232178,123.798
1322722292178,123.579
1322722352178,122.930
1322722412178,122.982
1322722472178,123.590
1322722532178,123.113
1322722592178,123.336
1322722652178,123.147
1322722712178,123.803
1322722772178,123.385
1322722832188,123.237
1322722892188,123.772
1322722952188,124.037
1322723012188,122.998
1322723072188,123.007
1322723132188,123.673
1322723192188,123.592
1322723252188,123.604
1322723312188,123.526
1322723372188,123.359
1322723432188,123.163
1322723492188,123.231
1322724032188,123.667
1322724092188,122.599
1322724152188,123.217
1322724212188,123.518
1322724272188,123.033
1322724332188,122.537
1322724392188,123.060
1322724452188,122.489
1322724512188,122.989
1322724572188,123.018
1322724632188,124.057
1322724692188,123.211
1322724752188,123.252
1322724812188,123.393
1322724872188,123.192
1322724932188,123.385
1322724992188,123.597
1322725052188,123.690
1322725112188,123.272
1322725172188,123.446
1322725232188,123.634
1322725292188,123.478
1322725352188,123.176
1322725412188,123.410
1322725472188,123.381
1322725532188,123.411
1322725592188,123.372
1322725652188,123.574
1322725712188,123.294
1322725772188,123.612
1322725832188,123.795
1322725892188,123.680
1322725952188,123.845
1322726012188,123.926
1322726072188,123.445
1322726132188,123.834
1322726192188,124.274
1322726252188,124.041
1322726312188,123.751
1322726372188,124.012
1322726432199,123.865
1322726492199,124.077
1322726552199,124.154
1322726612199,123.374
1322726672199,123.638
1322726732199,123.948
1322726792199,124.150
1322726852199,124.416
1322726912199,123.906
1322726972199,124.155
1322727032199,123.979
1322727092199,124.374
1322727152199,123.625
1322727212199,123.967
1322727272199,123.941
1322727332199,123.968
1322727392199,124.257
1322727452199,124.173
1322727512199,124.326
1322727572199,123.765
1322727632199,124.070
1322727692199,124.254
1322727752199,123.793
1322727812199,124.460
1322727872199,123.529
1322727932199,124.120
1322727992199,124.226
1322728052199,123.961
1322728112199,123.437
1322728172199,124.002
1322728232199,123.860
1322728292199,123.745
1322728352199,123.863
1322728412199,123.577
1322728472199,122.990
1322728532199,123.403
1322728592199,123.388
1322728652199,122.838
1322728712199,123.342
1322728772199,123.093
1322728832199,123.067
1322728892199,123.203
1322728952199,122.769
1322729012199,123.023
1322729072199,123.294
1322729132199,123.347
1322729192199,123.533
1322729252199,122.860
1322729312199,122.605
1322729372199,123.468
1322729432199,123.250
1322729492199,123.032
1322729552199,123.020
1322729612199,123.216
1322729672199,122.823
1322729732199,122.999
1322729792199,122.530
1322729852199,122.367
1322729912199,122.658
1322729972199,123.038
1322730032210,122.046
1322730092210,122.318
1322730152210,123.099
1322730212210,122.526
1322730272210,122.087
1322730332210,122.193
1322730392210,122.683
1322730452210,122.345
1322730512210,122.040
1322730572210,122.417
1322730632210,122.317
1322730692210,122.486
1322730752210,122.268
1322730812210,122.778
1322730872210,122.442
1322730932210,122.404
1322730992210,122.428
1322731052210,122.513
1322731112210,122.529
1322731172210,122.507
1322731232210,122.432
1322731292210,122.355
1322731352210,122.384
1322731412210,123.036
1322731472210,122.481
1322731532210,122.451
1322731592210,122.338
1322731652210,122.271
1322731712210,122.627
1322731772210,123.086
1322731832210,122.454
1322731892210,123.066
1322731952210,122.829
1322732012210,123.038
1322732072210,122.884
1322732132210,122.907
1322732192210,122.947
1322732252210,122.797
1322732312210,122.772
1322732372210,122.558
1322732432210,122.880
1322732492210,122.686
1322732552210,122.740
1322732612210,122.967
1322732672210,122.821
1322732732210,123.457
1322732792210,123.347
1322732852210,123.304
1322732912210,123.324
1322732972210,123.706
1322733032210,123.304
1322733092210,122.973
1322733152210,123.483
1322733212210,122.687
1322733272210,123.269
1322733332210,123.243
1322733392210,123.528
1322733452210,123.372
1322733512210,123.696
1322733572210,123.438
1322733632222,123.257
1322733692222,123.694
1322733752222,123.454
1322733812222,124.106
1322733872222,123.727
1322733932222,123.441
1322733992222,123.131
1322734052222,122.816
1322734112222,123.699
1322734172222,123.006
1322734232222,124.358
1322734292222,124.120
1322734352222,124.088
1322734412222,123.793
1322734472222,123.686
1322734532222,124.174
1322734592222,124.255
1322734652222,123.834
1322734712222,124.054
1322734772222,124.026
1322734832222,124.170
1322734892222,124.199
1322734952222,124.314
1322735012222,124.714
1322735072222,124.462
1322735132222,124.937
1322735192222,124.623
1322735252222,124.027
1322735312222,124.195
1322735372222,124.742
1322735432222,124.776
1322735492222,124.492
1322735552222,124.718
1322735612222,124.410
1322735672222,124.869
1322735732222,124.963
1322735792222,125.431
1322735852222,125.367
1322735912222,124.933
1322735972222,125.156
1322736032222,125.423
1322736092222,125.137
1322736152222,125.937
1322736212222,125.527
1322736272222,125.663
1322736332222,125.629
1322736392222,125.295
1322736452222,125.598
1322736512222,125.453
1322736572222,125.598
1322736632222,125.982
1322736692222,125.593
1322736752222,126.141
1322736812222,125.380
1322736872222,125.202
1322736932222,125.087
1322736992222,125.561
1322737052222,125.579
1322737112222,125.251
1322737172222,125.502
1322737232233,125.441
1322737292233,125.651
1322737352233,125.653
1322737412233,125.464
1322737472233,125.987
1322737532233,125.468
1322737592233,125.701
1322737652233,126.040
1322737712233,125.917
1322737772233,125.791
1322737832233,126.230
1322737892233,126.125
1322737952233,125.637
1322738012233,126.192
1322738072233,126.177
1322738132233,125.624
1322738192233,125.812
1322738252233,125.943
1322738312233,125.876
1322738372233,126.100
1322738432233,126.288
1322738492233,125.958
1322738552233,126.006
1322738612233,125.923
1322738672233,126.122
1322738732233,125.551
1322738792233,125.927
1322738852233,125.433
1322738912233,125.886
1322738972233,125.766
1322739032233,125.670
1322739092233,125.866
1322739152233,125.655
1322739212233,125.769
1322739272233,125.174
1322739332233,125.782
1322739392233,125.664
1322739452233,126.167
1322739512233,125.673
1322739572233,125.276
1322739632233,125.788
1322739692233,126.080
1322739752233,125.576
1322739812233,125.744
1322739872233,126.719
1322739932233,125.999
1322739992233,125.625
1322740052233,125.700
1322740112233,126.114
1322740172233,125.523
1322740232233,126.335
1322740292233,126.154
1322740352233,126.392
1322740412233,125.839
1322740472233,126.603
1322740532233,125.917
1322740592233,125.888
1322740652233,125.522
1322740712233,126.300
1322740772233,125.783
1322740832245,125.917
1322740892245,126.448
1322740952245,126.437
1322741012245,126.890
1322741072245,126.112
1322741132245,126.239
1322741192245,126.802
1322741252245,126.843
1322741312245,126.825
1322741372245,126.531
1322741432245,126.131
1322741492245,126.497
1322741552245,126.748
1322741612245,126.574
1322741672245,126.294
1322741732245,126.639
1322741792245,126.704
1322741852245,126.350
1322741912245,126.880
1322741972245,126.540
1322742032245,126.626
1322742092245,126.369
1322742152245,126.761
1322742212245,126.435
1322742272245,125.935
1322742332245,126.173
1322742392245,126.560
1322742452245,127.394
1322742512245,126.897
1322742572245,126.699
1322742632245,127.201
1322742692245,127.019
1322742752245,127.137
1322742812245,126.360
1322742872245,126.838
1322742932245,126.591
1322742992245,126.728
1322743052245,126.721
1322743112245,126.852
1322743172245,126.597
1322743232245,127.046
1322743292245,127.627
1322743352245,127.272
1322743412245,127.246
1322743472245,127.088
1322743532245,127.506
1322743592245,127.470
1322743652245,126.559
1322743712245,126.712
1322743772245,126.971
1322743832245,126.865
1322743892245,127.019
1322743952245,127.166
1322744012245,127.273
1322744072245,127.494
1322744132245,126.683
1322744192245,127.098
1322744252245,126.466
1322744312245,126.210
1322744372245,127.176
1322744432257,126.617
1322744492257,126.869
1322744552257,127.340
1322744612257,126.538
1322744672257,126.553
1322744732257,127.494
1322744792257,127.125
1322744852257,127.151
1322744912257,126.885
1322744972257,126.652
1322745032257,126.328
1322745092257,126.630
1322745152257,126.578
1322745212257,127.208
1322745272257,126.729
1322745332257,126.737
1322745392257,127.037
1322745452257,126.434
1322745512257,126.985
1322745572257,126.981
1322745632257,126.718
1322745692257,126.251
1322745752257,126.386
1322745812257,126.986
1322745872257,127.003
1322745932257,126.873
1322745992257,126.601
1322746052257,126.799
1322746112257,126.671
1322746172257,127.060
1322746232257,126.870
1322746292257,127.080
1322746352257,126.235
1322746412257,126.615
1322746472257,126.214
1322746532257,126.753
1322746592257,126.449
1322746652257,126.756
1322746712257,126.679
1322746772257,126.046
1322746832257,126.044
1322746892257,125.966
1322746952257,126.808
1322747012257,126.002
1322747072257,126.601
1322747132257,126.353
1322747192257,126.682
1322747252257,126.348
1322747312257,126.522
1322747372257,126.479
1322747432257,126.047
1322747492257,126.694
1322747552257,126.293
1322747612257,126.416
1322747672257,126.289
1322747732257,126.725
1322747792257,126.792
1322747852257,126.634
1322747912257,126.310
1322747972257,126.628
1322748032269,126.444
1322748092269,127.027
1322748152269,126.801
1322748212269,126.989
1322748272269,127.286
1322748332269,126.550
1322748392269,126.503
1322748452269,126.661
1322748512269,126.716
1322748572269,126.694
1322748632269,127.104
1322748692269,127.289
1322748752269,126.788
1322748812269,126.974
1322748872269,127.165
1322748932269,126.453
1322748992269,127.242
1322749052269,127.663
1322749112269,127.749
1322749172269,127.650
1322749232269,127.600
1322749292269,126.711
1322749352269,127.022
1322749412269,127.159
1322749472269,127.577
1322749532269,127.131
1322749592269,127.630
1322749652269,127.441
1322749712269,127.336
1322749772269,127.595
1322749832269,127.427
1322749892269,127.358
1322749952269,127.607
1322750012269,127.798
1322750072269,127.411
1322750132269,127.424
1322750192269,127.716
1322750252269,127.890
1322750312269,127.454
1322750372269,127.483
1322750432269,127.819
1322750492269,127.609
1322750552269,127.782
1322750612269,127.863
1322750672269,128.098
1322750732269,127.717
1322750792269,127.656
1322750852269,127.634
1322750912269,127.367
1322750972269,127.658
1322751032269,127.987
1322751092269,127.973
1322751152269,127.128
1322751212269,127.538
1322751272269,127.343
1322751332269,127.514
1322751392269,127.662
1322751452269,126.595
1322751512269,127.397
1322751572269,127.697
1322751632281,127.455
1322751692281,127.071
1322751752281,127.503
1322751812281,126.933
1322751872281,127.267
1322751932281,127.381
1322751992281,127.667
1322752052281,127.773
1322752112281,126.647
1322752172281,127.327
1322752232281,127.327
1322752292281,126.986
1322752352281,127.372
1322752412281,127.802
1322752472281,127.173
1322752532281,127.248
1322752592281,127.427
1322752652281,127.305
1322752712281,127.072
1322752772281,127.152
1322752832281,127.470
1322752892281,127.378
1322752952281,127.450
1322753012281,126.896
1322753072281,127.588
1322753132281,127.135
1322753192281,127.422
1322753252281,126.644
1322753312281,126.924
1322753372281,126.911
1322753432281,127.059
1322753492281,127.171
1322753552281,127.930
1322753612281,127.448
1322753672281,126.974
1322753732281,126.811
1322753792281,126.436
1322753852281,127.182
1322753912281,126.945
1322753972281,127.321
1322754032281,127.089
1322754092281,126.981
1322754152281,127.261
1322754212281,127.572
1322754272281,126.962
1322754332281,127.055
1322754392281,126.954
1322754452281,127.244
1322754512281,127.099
1322754572281,126.788
1322754632281,126.919
1322754692281,126.618
1322754752281,127.459
1322754812281,127.252
1322754872281,126.807
1322754932281,127.414
1322754992281,127.192
1322755052281,127.499
1322755112281,127.373
1322755172281,126.669
1322755232293,126.662
1322755292293,127.041
1322755352293,126.657
1322755412293,126.843
1322755472293,126.965
1322755532293,127.033
1322755592293,126.753
1322755652293,126.489
1322755712293,126.843
1322755772293,126.715
1322755832293,126.489
1322755892293,126.414
1322755952293,126.604
1322756012293,126.805
1322756072293,126.529
1322756132293,126.427
1322756192293,126.887
1322756252293,126.389
1322756312293,127.320
1322756372293,126.671
1322756432293,125.905
1322756492293,127.019
1322756552293,126.799
1322756612293,126.059
1322756672293,126.718
1322756732293,127.008
1322756792293,127.098
1322756852293,127.203
1322756912293,126.777
1322756972293,126.399
1322757032293,126.877
1322757092293,126.923
1322757152293,126.718
1322757212293,126.939
1322757272293,126.928
1322757332293,126.170
1322757392293,126.667
1322757452293,126.778
1322757512293,126.780
1322757572293,127.118
1322757632293,127.367
1322757692293,126.890
1322757752293,126.568
1322757812293,126.757
1322757872293,126.688
1322757932293,126.549
1322757992293,127.068
1322758052293,127.064
1322758112293,126.644
1322758172293,126.556
1322758232293,126.735
1322758292293,127.078
1322758352293,126.254
1322758412293,126.772
1322758472293,126.611
1322758532293,126.748
1322758592293,127.050
1322758652293,127.370
1322758712293,126.891
1322758772293,126.430
1322758832305,126.559
1322758892305,126.878
1322758952305,127.687
1322759012305,126.656
1322759072305,126.956
1322759132305,126.886
1322759192305,127.886
1322759252305,126.947
1322759312305,126.996
1322759372305,126.879
1322759432305,127.269
1322759492305,127.186
1322759552305,126.788
1322759612305,127.305
1322759672305,127.672
1322759732305,127.260
1322759792305,127.140
1322759852305,127.229
1322759912305,127.549
1322759972305,126.752
1322760032305,127.069
1322760092305,127.234
1322760152305,127.675
1322760212305,127.983
1322760272305,127.502
1322760332305,127.476
1322760392305,127.115
1322760452305,127.493
1322760512305,127.678
1322760572305,127.578
1322760632305,127.581
1322760692305,128.058
1322760752305,127.706
1322760812305,127.589
1322760872305,127.822
1322760932305,127.919
1322760992305,127.275
1322761052305,127.886
1322761112305,127.460
1322761172305,127.951
1322761232305,128.138
1322761292305,127.757
1322761352305,128.072
1322761412305,128.108
1322761472305,128.130
1322761532305,127.766
1322761592305,127.930
1322761652305,127.889
1322761712305,128.379
1322761772305,127.975
1322761832305,128.035
1322761892305,128.182
1322761952305,128.273
1322762012305,127.789
1322762072305,128.236
1322762132305,127.866
1322762192305,128.331
1322762252305,128.403
1322762312305,127.868
1322762372305,128.148
1322762432316,128.069
1322762492316,128.764
1322762552316,128.560
1322762612316,128.453
1322762672316,128.597
1322762732316,128.072
1322762792316,128.523
1322762852316,128.194
1322762912316,129.024
1322762972316,128.718
1322763032316,128.478
1322763092316,128.622
1322763152316,128.043
1322763212316,128.374
1322763272316,128.548
1322763332316,129.043
1322763392316,128.721
1322763452316,128.434